UAL725 KLAX-KFAT

Flight info

Callsign UAL725
Flight time 0h 39m
Altitude 27000
Route LADYJ4 CSTRO TTE ALTTA9
Aircraft B738/M-SDE2E3FGHIRWXY/LB1

Departure

Time 2026-04-26 12:33
Airport Los Angeles International Airport (KLAX)

Arrival

Time 2026-04-26 13:13
Airport Fresno Yosemite International Airport (KFAT)
Time Latitude Longitude Altitude Speed Heading
2026-04-26 12:09 33.94159 -118.40026 92 ft 0 kts 90°
2026-04-26 12:22 33.94159 -118.40031 92 ft 1 kts 90°
2026-04-26 12:22 33.94159 -118.40035 92 ft 1 kts 90°
2026-04-26 12:23 33.94159 -118.40044 93 ft 2 kts 92°
2026-04-26 12:23 33.94160 -118.40057 92 ft 2 kts 108°
2026-04-26 12:23 33.94165 -118.40069 92 ft 2 kts 130°
2026-04-26 12:23 33.94176 -118.40080 93 ft 2 kts 158°
2026-04-26 12:24 33.94182 -118.40083 94 ft 0 kts 170°
2026-04-26 12:28 33.94178 -118.40082 93 ft 3 kts 173°
2026-04-26 12:28 33.94122 -118.40078 92 ft 12 kts 173°
2026-04-26 12:28 33.94059 -118.40068 92 ft 9 kts 174°
2026-04-26 12:28 33.93995 -118.40061 93 ft 9 kts 174°
2026-04-26 12:29 33.93934 -118.40051 95 ft 9 kts 168°
2026-04-26 12:29 33.93889 -118.40006 95 ft 8 kts 118°
2026-04-26 12:29 33.93901 -118.39777 96 ft 29 kts 82°
2026-04-26 12:30 33.93928 -118.39525 95 ft 30 kts 84°
2026-04-26 12:30 33.93952 -118.39279 92 ft 29 kts 83°
2026-04-26 12:30 33.93975 -118.39047 93 ft 27 kts 83°
2026-04-26 12:31 33.94019 -118.38627 94 ft 24 kts 84°
2026-04-26 12:31 33.94037 -118.38439 96 ft 22 kts 84°
2026-04-26 12:31 33.94055 -118.38278 95 ft 19 kts 83°
2026-04-26 12:31 33.94069 -118.38125 92 ft 18 kts 84°
2026-04-26 12:32 33.94075 -118.38063 92 ft 6 kts 86°
2026-04-26 12:32 33.94050 -118.38008 92 ft 10 kts 137°
2026-04-26 12:32 33.93968 -118.38181 98 ft 48 kts 263°
2026-04-26 12:33 33.93891 -118.38931 95 ft 130 kts 263°
2026-04-26 12:33 33.93753 -118.40229 436 ft 171 kts 264°
2026-04-26 12:33 33.93612 -118.41758 1209 ft 193 kts 264°
2026-04-26 12:33 33.93471 -118.43365 2095 ft 191 kts 264°
2026-04-26 12:34 33.93325 -118.44944 2943 ft 193 kts 264°
2026-04-26 12:34 33.93097 -118.46660 3212 ft 223 kts 264°
2026-04-26 12:34 33.92924 -118.48615 3501 ft 253 kts 265°
2026-04-26 12:34 33.92757 -118.50788 4216 ft 264 kts 265°
2026-04-26 12:35 33.92584 -118.53008 5147 ft 268 kts 265°
2026-04-26 12:35 33.92403 -118.55249 6116 ft 270 kts 265°
2026-04-26 12:35 33.92217 -118.57512 7026 ft 273 kts 264°
2026-04-26 12:35 33.92062 -118.59809 7647 ft 276 kts 271°
2026-04-26 12:36 33.92535 -118.62025 7963 ft 273 kts 295°
2026-04-26 12:36 33.93655 -118.63843 8004 ft 270 kts 313°
2026-04-26 12:36 33.95202 -118.65116 8007 ft 269 kts 327°
2026-04-26 12:36 33.96839 -118.66184 8004 ft 268 kts 327°
2026-04-26 12:37 33.98464 -118.67217 8002 ft 268 kts 331°
2026-04-26 12:37 34.00288 -118.67697 8010 ft 275 kts 355°
2026-04-26 12:37 34.02220 -118.67595 8004 ft 277 kts 359°
2026-04-26 12:37 34.04146 -118.67450 8005 ft 277 kts 358°
2026-04-26 12:38 34.06073 -118.67314 8009 ft 278 kts 358°
2026-04-26 12:38 34.08003 -118.67170 8015 ft 280 kts
2026-04-26 12:38 34.09944 -118.66790 8020 ft 285 kts
2026-04-26 12:38 34.11905 -118.66293 8547 ft 290 kts
2026-04-26 12:39 34.13883 -118.65784 9489 ft 291 kts
2026-04-26 12:39 34.15849 -118.65292 10328 ft 294 kts
2026-04-26 12:39 34.17869 -118.64802 11121 ft 298 kts
2026-04-26 12:39 34.19914 -118.64314 11917 ft 301 kts
2026-04-26 12:40 34.21985 -118.63823 12702 ft 305 kts
2026-04-26 12:40 34.24086 -118.63358 13516 ft 307 kts
2026-04-26 12:40 34.26190 -118.63541 14186 ft 303 kts 343°
2026-04-26 12:40 34.28267 -118.64050 14918 ft 305 kts 343°
2026-04-26 12:41 34.30357 -118.64562 15667 ft 308 kts 343°
2026-04-26 12:41 34.32442 -118.65063 16360 ft 312 kts 343°
2026-04-26 12:41 34.34587 -118.65567 17056 ft 316 kts 343°
2026-04-26 12:41 34.36759 -118.66068 17765 ft 319 kts 343°
2026-04-26 12:42 34.38954 -118.66571 18426 ft 323 kts 343°
2026-04-26 12:42 34.41169 -118.67077 19074 ft 325 kts 343°
2026-04-26 12:42 34.43400 -118.67577 19722 ft 327 kts 344°
2026-04-26 12:42 34.45661 -118.68033 20336 ft 331 kts 345°
2026-04-26 12:43 34.47947 -118.68473 20928 ft 335 kts 345°
2026-04-26 12:43 34.50230 -118.68909 21534 ft 338 kts 345°
2026-04-26 12:43 34.52562 -118.69356 22127 ft 341 kts 345°
2026-04-26 12:43 34.54925 -118.69814 22477 ft 350 kts 345°
2026-04-26 12:44 34.57379 -118.70294 22561 ft 364 kts 346°
2026-04-26 12:44 34.59927 -118.70794 22675 ft 378 kts 346°
2026-04-26 12:44 34.62565 -118.71309 22798 ft 391 kts 346°
2026-04-26 12:44 34.65286 -118.71839 22985 ft 400 kts 346°
2026-04-26 12:45 34.68050 -118.72378 23364 ft 404 kts 346°
2026-04-26 12:45 34.70790 -118.72920 23777 ft 405 kts 345°
2026-04-26 12:45 34.73433 -118.73974 24144 ft 398 kts 327°
2026-04-26 12:45 34.75822 -118.75654 24558 ft 397 kts 326°
2026-04-26 12:46 34.78216 -118.77347 24907 ft 399 kts 326°
2026-04-26 12:46 34.80631 -118.79040 25252 ft 402 kts 326°
2026-04-26 12:46 34.83065 -118.80734 25597 ft 404 kts 326°
2026-04-26 12:46 34.85516 -118.82430 25956 ft 406 kts 326°
2026-04-26 12:47 34.87976 -118.84125 26321 ft 407 kts 326°
2026-04-26 12:47 34.90405 -118.85796 26785 ft 405 kts 326°
2026-04-26 12:47 34.92868 -118.87491 26952 ft 408 kts 326°
2026-04-26 12:47 34.95343 -118.89194 26955 ft 408 kts 326°
2026-04-26 12:48 34.97799 -118.90884 26955 ft 403 kts 326°
2026-04-26 12:48 35.00239 -118.92564 26977 ft 403 kts 327°
2026-04-26 12:48 35.02680 -118.94249 26973 ft 403 kts 327°
2026-04-26 12:48 35.05122 -118.95935 26963 ft 403 kts 327°
2026-04-26 12:49 35.07562 -118.97621 26959 ft 404 kts 327°
2026-04-26 12:49 35.09974 -118.99289 26961 ft 404 kts 327°
2026-04-26 12:49 35.12418 -119.00980 26964 ft 404 kts 327°
2026-04-26 12:49 35.14868 -119.02677 26963 ft 405 kts 327°
2026-04-26 12:50 35.17317 -119.04374 26957 ft 405 kts 327°
2026-04-26 12:50 35.19786 -119.06087 26994 ft 412 kts 327°
2026-04-26 12:50 35.22308 -119.07839 26971 ft 422 kts 328°
2026-04-26 12:50 35.24885 -119.09630 26966 ft 430 kts 328°
2026-04-26 12:51 35.27512 -119.11455 26961 ft 438 kts 328°
2026-04-26 12:51 35.30184 -119.13313 26962 ft 445 kts 328°
2026-04-26 12:51 35.32857 -119.15173 26961 ft 451 kts 328°
2026-04-26 12:51 35.35603 -119.17085 26956 ft 457 kts 328°
2026-04-26 12:52 35.38382 -119.19023 26971 ft 461 kts 328°
2026-04-26 12:52 35.41206 -119.20910 26948 ft 465 kts 334°
2026-04-26 12:52 35.44338 -119.21936 26975 ft 470 kts 351°
2026-04-26 12:52 35.47618 -119.21951 26952 ft 475 kts
2026-04-26 12:53 35.50844 -119.20970 26970 ft 481 kts 16°
2026-04-26 12:53 35.53975 -119.19528 26977 ft 482 kts 18°
2026-04-26 12:53 35.57057 -119.18043 26959 ft 482 kts 18°
2026-04-26 12:53 35.60149 -119.16549 26914 ft 470 kts 18°
2026-04-26 12:54 35.63133 -119.15125 26809 ft 452 kts 18°
2026-04-26 12:54 35.66018 -119.13772 26700 ft 436 kts 18°
2026-04-26 12:54 35.68805 -119.12481 26598 ft 421 kts 17°
2026-04-26 12:54 35.71508 -119.11237 26465 ft 408 kts 17°
2026-04-26 12:55 35.74140 -119.10028 26222 ft 400 kts 17°
2026-04-26 12:55 35.76728 -119.08839 25861 ft 395 kts 17°
2026-04-26 12:55 35.79261 -119.07673 25357 ft 394 kts 17°
2026-04-26 12:55 35.81824 -119.06490 24820 ft 391 kts 18°
2026-04-26 12:56 35.84352 -119.05325 24175 ft 386 kts 18°
2026-04-26 12:56 35.86865 -119.04166 23454 ft 385 kts 18°
2026-04-26 12:56 35.89373 -119.03049 22627 ft 381 kts 13°
2026-04-26 12:56 35.91972 -119.02747 21910 ft 373 kts 353°
2026-04-26 12:57 35.94460 -119.03468 21259 ft 365 kts 339°
2026-04-26 12:57 35.96820 -119.04566 20594 ft 361 kts 337°
2026-04-26 12:57 35.99142 -119.05707 19907 ft 358 kts 336°
2026-04-26 12:58 36.03697 -119.07953 18647 ft 351 kts 337°
2026-04-26 12:58 36.05958 -119.09056 18002 ft 348 kts 337°
2026-04-26 12:58 36.08198 -119.10140 17336 ft 344 kts 338°
2026-04-26 12:58 36.10414 -119.11205 16714 ft 339 kts 338°
2026-04-26 12:59 36.12600 -119.12252 16078 ft 335 kts 337°
2026-04-26 12:59 36.14764 -119.13286 15449 ft 331 kts 337°
2026-04-26 12:59 36.16904 -119.14308 14854 ft 328 kts 337°
2026-04-26 12:59 36.18993 -119.15306 14271 ft 324 kts 337°
2026-04-26 13:00 36.21087 -119.16305 13682 ft 321 kts 337°
2026-04-26 13:00 36.23160 -119.17296 13060 ft 317 kts 337°
2026-04-26 13:00 36.25177 -119.18259 12774 ft 303 kts 337°
2026-04-26 13:00 36.27096 -119.19177 12562 ft 289 kts 337°
2026-04-26 13:01 36.28955 -119.20068 12111 ft 285 kts 337°
2026-04-26 13:01 36.30803 -119.20954 11551 ft 285 kts 337°
2026-04-26 13:01 36.32649 -119.21839 11022 ft 284 kts 337°
2026-04-26 13:01 36.34486 -119.22720 10538 ft 282 kts 337°
2026-04-26 13:02 36.36285 -119.23583 10069 ft 280 kts 337°
2026-04-26 13:02 36.38099 -119.24452 9560 ft 279 kts 337°
2026-04-26 13:02 36.39901 -119.25316 9066 ft 276 kts 336°
2026-04-26 13:02 36.41683 -119.26171 8586 ft 273 kts 336°
2026-04-26 13:03 36.43451 -119.27019 8105 ft 271 kts 336°
2026-04-26 13:03 36.45204 -119.27860 7626 ft 269 kts 337°
2026-04-26 13:03 36.46953 -119.28699 7101 ft 270 kts 337°
2026-04-26 13:03 36.48667 -119.29521 6814 ft 257 kts 337°
2026-04-26 13:04 36.50308 -119.30312 6312 ft 250 kts 337°
2026-04-26 13:04 36.51884 -119.31072 6134 ft 244 kts 337°
2026-04-26 13:04 36.53485 -119.31847 6046 ft 250 kts 337°
2026-04-26 13:04 36.55070 -119.32737 5996 ft 251 kts 323°
2026-04-26 13:05 36.56224 -119.34274 5799 ft 240 kts 305°
2026-04-26 13:05 36.57174 -119.35941 5337 ft 233 kts 304°
2026-04-26 13:05 36.58066 -119.37522 5133 ft 215 kts 304°
2026-04-26 13:05 36.58919 -119.39027 4649 ft 212 kts 304°
2026-04-26 13:06 36.59770 -119.40522 4125 ft 211 kts 305°
2026-04-26 13:06 36.60593 -119.41960 3838 ft 199 kts 305°
2026-04-26 13:06 36.61360 -119.43299 3709 ft 181 kts 305°
2026-04-26 13:06 36.62090 -119.44570 3553 ft 185 kts 304°
2026-04-26 13:07 36.62850 -119.45891 3523 ft 188 kts 304°
2026-04-26 13:07 36.63599 -119.47192 3498 ft 181 kts 304°
2026-04-26 13:07 36.64331 -119.48467 3504 ft 182 kts 304°
2026-04-26 13:07 36.65068 -119.49753 3518 ft 183 kts 304°
2026-04-26 13:08 36.65806 -119.51041 3503 ft 181 kts 304°
2026-04-26 13:08 36.66522 -119.52285 3482 ft 173 kts 304°
2026-04-26 13:08 36.67202 -119.53469 3260 ft 169 kts 304°
2026-04-26 13:08 36.67887 -119.54661 2981 ft 166 kts 304°
2026-04-26 13:09 36.68553 -119.55819 2672 ft 165 kts 304°
2026-04-26 13:09 36.69224 -119.56991 2336 ft 166 kts 304°
2026-04-26 13:09 36.69898 -119.58166 1999 ft 166 kts 304°
2026-04-26 13:09 36.70563 -119.59330 1831 ft 160 kts 304°
2026-04-26 13:10 36.71179 -119.60385 1855 ft 144 kts 306°
2026-04-26 13:10 36.71778 -119.61375 1813 ft 142 kts 309°
2026-04-26 13:10 36.72396 -119.62333 1817 ft 143 kts 306°
2026-04-26 13:10 36.72936 -119.63362 1731 ft 145 kts 304°
2026-04-26 13:11 36.73503 -119.64391 1552 ft 144 kts 306°
2026-04-26 13:11 36.74076 -119.65407 1358 ft 143 kts 306°
2026-04-26 13:11 36.74654 -119.66424 1159 ft 144 kts 305°
2026-04-26 13:11 36.75236 -119.67450 958 ft 145 kts 305°
2026-04-26 13:12 36.75817 -119.68476 756 ft 145 kts 304°
2026-04-26 13:12 36.76394 -119.69505 571 ft 144 kts 304°
2026-04-26 13:12 36.76972 -119.70508 375 ft 144 kts 303°
2026-04-26 13:12 36.77508 -119.71460 338 ft 119 kts 305°
2026-04-26 13:13 36.77907 -119.72152 329 ft 74 kts 305°
2026-04-26 13:13 36.78087 -119.72468 334 ft 32 kts 305°
2026-04-26 13:13 36.78209 -119.72682 335 ft 29 kts 306°
2026-04-26 13:13 36.78324 -119.72879 334 ft 27 kts 303°
2026-04-26 13:14 36.78316 -119.73068 331 ft 23 kts 223°
2026-04-26 13:14 36.78188 -119.73181 333 ft 22 kts 204°
2026-04-26 13:14 36.78073 -119.73084 339 ft 22 kts 126°
2026-04-26 13:14 36.77988 -119.72936 339 ft 21 kts 125°
2026-04-26 13:15 36.77905 -119.72789 337 ft 20 kts 126°
2026-04-26 13:15 36.77823 -119.72648 336 ft 20 kts 126°
2026-04-26 13:15 36.77745 -119.72511 331 ft 19 kts 125°
2026-04-26 13:15 36.77669 -119.72378 329 ft 18 kts 126°
2026-04-26 13:16 36.77595 -119.72251 334 ft 18 kts 125°
2026-04-26 13:16 36.77524 -119.72126 334 ft 17 kts 126°
2026-04-26 13:16 36.77445 -119.72019 335 ft 17 kts 149°
2026-04-26 13:16 36.77344 -119.71960 336 ft 16 kts 154°
2026-04-26 13:17 36.77225 -119.71833 337 ft 8 kts 213°
2026-04-26 13:17 36.77224 -119.71835 338 ft 0 kts 216°